Time,TemperatureF,DewpointF,PressureIn,WindDirection,WindDirectionDegrees,WindSpeedMPH,WindSpeedGustMPH,Humidity,HourlyPrecipIn,Conditions,Clouds,dailyrainin,SoftwareType,DateUTC
2013-09-25 00:05:00,76.3,74.8,29.78,SE,126,8.0,9.0,95,0.00,,,0.36,Wunderground v.1.15,2013-09-25 04:05:00,
2013-09-25 00:10:00,76.5,75.0,29.78,ESE,109,8.0,8.0,95,0.00,,,0.36,Wunderground v.1.15,2013-09-25 04:10:00,
2013-09-25 00:20:00,77.3,76.1,29.77,SE,128,8.0,15.0,96,0.00,,,0.36,Wunderground v.1.15,2013-09-25 04:20:00,
2013-09-25 00:25:00,78.1,76.6,29.77,ESE,123,12.0,15.0,95,0.00,,,0.36,Wunderground v.1.15,2013-09-25 04:25:00,
2013-09-25 00:35:00,78.9,77.0,29.76,SE,140,13.0,14.0,94,0.00,,,0.36,Wunderground v.1.15,2013-09-25 04:35:00,
2013-09-25 00:40:00,78.9,76.7,29.76,SE,141,13.0,13.0,93,0.00,,,0.36,Wunderground v.1.15,2013-09-25 04:40:00,
2013-09-25 00:50:00,79.1,76.9,29.76,SSE,154,11.0,15.0,93,0.00,,,0.36,Wunderground v.1.15,2013-09-25 04:50:00,
2013-09-25 00:55:00,79.3,77.1,29.76,SE,140,13.0,15.0,93,0.00,,,0.00,Wunderground v.1.15,2013-09-25 04:55:00,
2013-09-25 01:05:00,79.4,77.2,29.76,SSE,154,10.0,12.0,93,0.00,,,0.00,Wunderground v.1.15,2013-09-25 05:05:00,
2013-09-25 01:10:00,79.5,77.3,29.76,SSE,163,9.0,9.0,93,0.00,,,0.00,Wunderground v.1.15,2013-09-25 05:10:00,
2013-09-25 01:20:00,79.6,77.4,29.76,SSE,152,9.0,9.0,93,0.00,,,0.00,Wunderground v.1.15,2013-09-25 05:20:00,
2013-09-25 01:25:00,79.7,77.5,29.76,SSE,161,8.0,9.0,93,0.00,,,0.00,Wunderground v.1.15,2013-09-25 05:25:00,
2013-09-25 01:35:00,79.9,77.7,29.76,SSE,155,3.0,6.0,93,0.00,,,0.00,Wunderground v.1.15,2013-09-25 05:35:00,
2013-09-25 01:40:00,79.9,77.7,29.76,SSE,155,1.0,1.0,93,0.00,,,0.00,Wunderground v.1.15,2013-09-25 05:40:00,
2013-09-25 01:50:00,80.0,77.8,29.76,SE,128,0.0,0.0,93,0.00,,,0.00,Wunderground v.1.15,2013-09-25 05:50:00,
2013-09-25 01:55:00,80.1,77.9,29.76,SE,128,0.0,0.0,93,0.00,,,0.00,Wunderground v.1.15,2013-09-25 05:55:00,
2013-09-25 02:00:00,80.2,78.0,29.76,SE,128,0.0,0.0,93,0.00,,,0.00,Wunderground v.1.15,2013-09-25 06:00:00,
2013-09-25 02:10:00,80.0,77.8,29.76,ESE,121,0.0,0.0,93,0.00,,,0.00,Wunderground v.1.15,2013-09-25 06:10:00,
2013-09-25 02:15:00,80.0,77.8,29.76,ESE,108,1.0,6.0,93,0.00,,,0.00,Wunderground v.1.15,2013-09-25 06:15:00,
2013-09-25 02:25:00,79.9,77.7,29.75,East,98,5.0,5.0,93,0.00,,,0.00,Wunderground v.1.15,2013-09-25 06:25:00,
2013-09-25 02:30:00,79.9,77.7,29.75,East,98,4.0,4.0,93,0.00,,,0.00,Wunderground v.1.15,2013-09-25 06:30:00,
2013-09-25 02:35:00,79.9,77.7,29.75,ESE,105,4.0,5.0,93,0.00,,,0.00,Wunderground v.1.15,2013-09-25 06:35:00,
2013-09-25 02:45:00,79.9,78.0,29.75,ESE,104,4.0,5.0,94,0.00,,,0.00,Wunderground v.1.15,2013-09-25 06:45:00,
2013-09-25 02:50:00,79.6,77.4,29.75,NNE,17,4.0,13.0,93,0.00,,,0.00,Wunderground v.1.15,2013-09-25 06:50:00,
2013-09-25 03:00:00,79.2,77.6,29.75,NE,46,15.0,19.0,95,0.00,,,0.00,Wunderground v.1.15,2013-09-25 07:00:00,
2013-09-25 03:05:00,79.2,77.6,29.75,NE,51,14.0,19.0,95,0.00,,,0.00,Wunderground v.1.15,2013-09-25 07:05:00,
2013-09-25 03:15:00,79.4,77.8,29.75,ENE,62,11.0,12.0,95,0.00,,,0.00,Wunderground v.1.15,2013-09-25 07:15:00,
2013-09-25 03:20:00,79.7,77.8,29.75,NE,53,10.0,10.0,94,0.00,,,0.00,Wunderground v.1.15,2013-09-25 07:20:00,
2013-09-25 03:25:00,79.6,77.7,29.75,NE,44,11.0,11.0,94,0.00,,,0.00,Wunderground v.1.15,2013-09-25 07:25:00,
2013-09-25 03:35:00,79.4,77.5,29.75,NE,53,11.0,15.0,94,0.00,,,0.00,Wunderground v.1.15,2013-09-25 07:35:00,
2013-09-25 03:40:00,79.2,77.6,29.75,ENE,60,13.0,13.0,95,0.00,,,0.00,Wunderground v.1.15,2013-09-25 07:40:00,
2013-09-25 03:50:00,79.4,77.8,29.75,ENE,61,11.0,11.0,95,0.00,,,0.00,Wunderground v.1.15,2013-09-25 07:50:00,
2013-09-25 03:55:00,79.2,77.6,29.75,East,80,11.0,12.0,95,0.00,,,0.00,Wunderground v.1.15,2013-09-25 07:55:00,
2013-09-25 04:05:00,79.2,77.6,29.75,NE,53,10.0,11.0,95,0.00,,,0.00,Wunderground v.1.15,2013-09-25 08:05:00,
2013-09-25 04:10:00,79.1,77.5,29.75,ENE,57,9.0,11.0,95,0.00,,,0.00,Wunderground v.1.15,2013-09-25 08:10:00,
2013-09-25 04:20:00,79.0,77.4,29.75,ENE,59,9.0,9.0,95,0.00,,,0.00,Wunderground v.1.15,2013-09-25 08:20:00,
2013-09-25 04:25:00,78.9,77.3,29.75,NE,51,7.0,9.0,95,0.00,,,0.00,Wunderground v.1.15,2013-09-25 08:25:00,
2013-09-25 04:35:00,79.0,77.4,29.75,NNE,26,7.0,8.0,95,0.00,,,0.00,Wunderground v.1.15,2013-09-25 08:35:00,
2013-09-25 04:40:00,79.0,77.4,29.75,NNE,33,7.0,7.0,95,0.00,,,0.00,Wunderground v.1.15,2013-09-25 08:40:00,
2013-09-25 04:50:00,78.8,77.2,29.75,NNE,32,8.0,8.0,95,0.00,,,0.00,Wunderground v.1.15,2013-09-25 08:50:00,
2013-09-25 04:55:00,78.9,77.3,29.75,NNE,17,8.0,8.0,95,0.00,,,0.00,Wunderground v.1.15,2013-09-25 08:55:00,
2013-09-25 05:05:00,78.9,77.3,29.75,NNE,15,7.0,7.0,95,0.00,,,0.00,Wunderground v.1.15,2013-09-25 09:05:00,
2013-09-25 05:10:00,78.6,77.0,29.75,North,350,7.0,7.0,95,0.00,,,0.00,Wunderground v.1.15,2013-09-25 09:10:00,
2013-09-25 05:20:00,78.5,76.9,29.75,NNW,347,2.0,2.0,95,0.00,,,0.00,Wunderground v.1.15,2013-09-25 09:20:00,
2013-09-25 05:25:00,78.1,76.6,29.75,North,5,2.0,6.0,95,0.00,,,0.00,Wunderground v.1.15,2013-09-25 09:25:00,
2013-09-25 05:35:00,77.8,76.6,29.75,NNW,342,1.0,1.0,96,0.00,,,0.00,Wunderground v.1.15,2013-09-25 09:35:00,
2013-09-25 05:40:00,77.8,76.6,29.75,North,5,2.0,8.0,96,0.00,,,0.00,Wunderground v.1.15,2013-09-25 09:40:00,
2013-09-25 05:50:00,77.4,76.2,29.75,NNE,17,3.0,9.0,96,0.00,,,0.00,Wunderground v.1.15,2013-09-25 09:50:00,
2013-09-25 05:55:00,77.4,76.2,29.75,NNE,30,6.0,9.0,96,0.00,,,0.00,Wunderground v.1.15,2013-09-25 09:55:00,
2013-09-25 06:00:00,77.5,76.3,29.75,NNE,27,6.0,6.0,96,0.00,,,0.00,Wunderground v.1.15,2013-09-25 10:00:00,
2013-09-25 06:10:00,77.6,76.4,29.75,NNE,19,2.0,2.0,96,0.00,,,0.00,Wunderground v.1.15,2013-09-25 10:10:00,
2013-09-25 06:15:00,77.5,76.3,29.75,NNE,23,0.0,2.0,96,0.00,,,0.00,Wunderground v.1.15,2013-09-25 10:15:00,
2013-09-25 06:25:00,77.5,76.3,29.75,NNE,18,4.0,5.0,96,0.00,,,0.00,Wunderground v.1.15,2013-09-25 10:25:00,
2013-09-25 06:30:00,77.3,76.1,29.75,NNE,25,6.0,6.0,96,0.00,,,0.00,Wunderground v.1.15,2013-09-25 10:30:00,
2013-09-25 06:35:00,77.1,75.9,29.75,NNE,28,7.0,8.0,96,0.00,,,0.00,Wunderground v.1.15,2013-09-25 10:35:00,
2013-09-25 06:45:00,77.1,75.9,29.75,NNE,14,6.0,7.0,96,0.00,,,0.00,Wunderground v.1.15,2013-09-25 10:45:00,
2013-09-25 06:50:00,77.1,76.2,29.75,NNE,19,4.0,4.0,97,0.00,,,0.00,Wunderground v.1.15,2013-09-25 10:50:00,
2013-09-25 07:00:00,76.8,75.9,29.76,NNE,19,1.0,1.0,97,0.00,,,0.00,Wunderground v.1.15,2013-09-25 11:00:00,
2013-09-25 07:05:00,76.6,75.7,29.76,NNE,22,1.0,1.0,97,0.00,,,0.00,Wunderground v.1.15,2013-09-25 11:05:00,
2013-09-25 07:15:00,76.6,75.7,29.76,North,355,0.0,0.0,97,0.00,,,0.00,Wunderground v.1.15,2013-09-25 11:15:00,
2013-09-25 07:20:00,76.5,75.6,29.77,North,355,0.0,0.0,97,0.00,,,0.00,Wunderground v.1.15,2013-09-25 11:20:00,
2013-09-25 07:30:00,75.8,74.9,29.77,NNW,347,0.0,0.0,97,0.00,,,0.00,Wunderground v.1.15,2013-09-25 11:30:00,
2013-09-25 07:35:00,75.6,74.7,29.77,NNW,336,0.0,3.0,97,0.00,,,0.00,Wunderground v.1.15,2013-09-25 11:35:00,
2013-09-25 07:45:00,74.9,73.7,29.78,NW,319,2.0,2.0,96,0.00,,,0.00,Wunderground v.1.15,2013-09-25 11:45:00,
2013-09-25 07:50:00,74.6,73.4,29.78,NW,323,2.0,2.0,96,0.00,,,0.00,Wunderground v.1.15,2013-09-25 11:50:00,
2013-09-25 07:55:00,74.4,73.5,29.79,NNW,344,1.0,2.0,97,0.00,,,0.00,Wunderground v.1.15,2013-09-25 11:55:00,
2013-09-25 08:05:00,74.0,73.1,29.79,NNW,327,1.0,1.0,97,0.00,,,0.00,Wunderground v.1.15,2013-09-25 12:05:00,
2013-09-25 08:10:00,73.9,73.0,29.79,NNW,331,2.0,3.0,97,0.00,,,0.00,Wunderground v.1.15,2013-09-25 12:10:00,
2013-09-25 08:20:00,73.8,72.9,29.79,NW,323,1.0,4.0,97,0.00,,,0.00,Wunderground v.1.15,2013-09-25 12:20:00,
2013-09-25 08:25:00,73.8,72.9,29.79,NNW,331,0.0,4.0,97,0.00,,,0.00,Wunderground v.1.15,2013-09-25 12:25:00,
2013-09-25 08:35:00,74.0,73.1,29.79,North,355,0.0,0.0,97,0.00,,,0.00,Wunderground v.1.15,2013-09-25 12:35:00,
2013-09-25 08:40:00,73.9,73.0,29.80,NNW,342,0.0,0.0,97,0.00,,,0.00,Wunderground v.1.15,2013-09-25 12:40:00,
2013-09-25 08:50:00,73.9,73.3,29.80,NW,316,0.0,0.0,98,0.00,,,0.00,Wunderground v.1.15,2013-09-25 12:50:00,
2013-09-25 08:55:00,74.0,73.1,29.80,NNW,327,0.0,0.0,97,0.00,,,0.00,Wunderground v.1.15,2013-09-25 12:55:00,
2013-09-25 09:05:00,74.2,73.3,29.80,NW,311,1.0,2.0,97,0.00,,,0.00,Wunderground v.1.15,2013-09-25 13:05:00,
2013-09-25 09:10:00,74.2,73.3,29.80,NW,323,0.0,0.0,97,0.00,,,0.00,Wunderground v.1.15,2013-09-25 13:10:00,
2013-09-25 09:20:00,74.4,73.5,29.80,NNW,332,2.0,6.0,97,0.00,,,0.00,Wunderground v.1.15,2013-09-25 13:20:00,
2013-09-25 09:25:00,74.4,73.5,29.80,NW,319,5.0,6.0,97,0.00,,,0.00,Wunderground v.1.15,2013-09-25 13:25:00,
2013-09-25 09:35:00,74.6,73.7,29.80,NW,315,6.0,7.0,97,0.00,,,0.00,Wunderground v.1.15,2013-09-25 13:35:00,
2013-09-25 09:40:00,74.6,73.7,29.80,NW,318,6.0,6.0,97,0.00,,,0.00,Wunderground v.1.15,2013-09-25 13:40:00,
2013-09-25 09:50:00,74.7,73.5,29.81,NW,316,2.0,2.0,96,0.00,,,0.00,Wunderground v.1.15,2013-09-25 13:50:00,
2013-09-25 09:55:00,74.8,73.6,29.81,NNW,344,2.0,2.0,96,0.00,,,0.00,Wunderground v.1.15,2013-09-25 13:55:00,
2013-09-25 10:05:00,75.7,74.8,29.81,NW,321,1.0,4.0,97,0.00,,,0.00,Wunderground v.1.15,2013-09-25 14:05:00,
2013-09-25 10:10:00,76.1,74.9,29.82,NW,319,1.0,1.0,96,0.00,,,0.00,Wunderground v.1.15,2013-09-25 14:10:00,
2013-09-25 10:20:00,76.5,75.0,29.82,WNW,298,4.0,4.0,95,0.00,,,0.00,Wunderground v.1.15,2013-09-25 14:20:00,
2013-09-25 10:25:00,76.4,74.9,29.82,NW,321,5.0,10.0,95,0.00,,,0.00,Wunderground v.1.15,2013-09-25 14:25:00,
2013-09-25 10:35:00,76.3,74.8,29.82,NW,318,5.0,7.0,95,0.00,,,0.00,Wunderground v.1.15,2013-09-25 14:35:00,
2013-09-25 10:40:00,76.3,74.4,29.82,NW,316,2.0,2.0,94,0.00,,,0.00,Wunderground v.1.15,2013-09-25 14:40:00,
2013-09-25 10:50:00,76.1,73.9,29.82,NW,314,0.0,2.0,93,0.00,,,0.00,Wunderground v.1.15,2013-09-25 14:50:00,
2013-09-25 10:55:00,76.2,74.3,29.82,NNW,339,0.0,2.0,94,0.00,,,0.00,Wunderground v.1.15,2013-09-25 14:55:00,
2013-09-25 11:00:00,76.4,74.5,29.82,NNW,329,1.0,1.0,94,0.00,,,0.00,Wunderground v.1.15,2013-09-25 15:00:00,
2013-09-25 11:05:00,76.3,74.1,29.82,North,355,1.0,1.0,93,0.00,,,0.00,Wunderground v.1.15,2013-09-25 15:05:00,
2013-09-25 11:15:00,76.4,74.2,29.82,NW,308,1.0,8.0,93,0.00,,,0.00,Wunderground v.1.15,2013-09-25 15:15:00,
2013-09-25 11:20:00,76.7,74.5,29.82,NNW,336,1.0,5.0,93,0.00,,,0.00,Wunderground v.1.15,2013-09-25 15:20:00,
2013-09-25 11:30:00,77.1,74.6,29.82,NNW,346,2.0,5.0,92,0.00,,,0.00,Wunderground v.1.15,2013-09-25 15:30:00,
2013-09-25 11:35:00,77.0,74.2,29.82,NNE,17,1.0,5.0,91,0.00,,,0.00,Wunderground v.1.15,2013-09-25 15:35:00,
2013-09-25 11:40:00,77.3,74.5,29.82,NNW,337,1.0,1.0,91,0.00,,,0.00,Wunderground v.1.15,2013-09-25 15:40:00,
2013-09-25 11:50:00,77.8,74.6,29.82,NNW,340,1.0,1.0,90,0.00,,,0.00,Wunderground v.1.15,2013-09-25 15:50:00,
2013-09-25 11:55:00,78.2,75.0,29.82,NW,316,1.0,1.0,90,0.00,,,0.01,Wunderground v.1.15,2013-09-25 15:55:00,
2013-09-25 12:05:00,78.5,75.0,29.82,NW,325,2.0,5.0,89,0.00,,,0.01,Wunderground v.1.15,2013-09-25 16:05:00,
2013-09-25 12:15:00,78.9,75.0,29.82,North,360,0.0,1.0,88,0.00,,,0.01,Wunderground v.1.15,2013-09-25 16:15:00,
2013-09-25 12:20:00,79.2,75.0,29.82,NW,321,0.0,0.0,87,0.00,,,0.01,Wunderground v.1.15,2013-09-25 16:20:00,
2013-09-25 12:25:00,79.5,75.3,29.82,WNW,290,0.0,3.0,87,0.00,,,0.01,Wunderground v.1.15,2013-09-25 16:25:00,
2013-09-25 12:35:00,80.0,74.7,29.82,NNW,331,0.0,0.0,84,0.00,,,0.01,Wunderground v.1.15,2013-09-25 16:35:00,
2013-09-25 12:40:00,79.2,74.3,29.82,North,5,0.0,0.0,85,0.00,,,0.01,Wunderground v.1.15,2013-09-25 16:40:00,
2013-09-25 12:50:00,79.5,74.6,29.82,North,5,0.0,4.0,85,0.00,,,0.01,Wunderground v.1.15,2013-09-25 16:50:00,
2013-09-25 12:55:00,79.2,74.6,29.81,NNE,15,0.0,4.0,86,0.00,,,0.01,Wunderground v.1.15,2013-09-25 16:55:00,
2013-09-25 13:05:00,78.5,74.0,29.81,NNE,26,1.0,1.0,86,0.00,,,0.01,Wunderground v.1.15,2013-09-25 17:05:00,
2013-09-25 13:10:00,78.5,74.6,29.81,NNE,24,2.0,6.0,88,0.00,,,0.01,Wunderground v.1.15,2013-09-25 17:10:00,
2013-09-25 13:20:00,78.3,74.1,29.81,NE,36,2.0,2.0,87,0.00,,,0.01,Wunderground v.1.15,2013-09-25 17:20:00,
2013-09-25 13:25:00,78.5,74.6,29.81,NE,42,0.0,2.0,88,0.00,,,0.01,Wunderground v.1.15,2013-09-25 17:25:00,
2013-09-25 13:35:00,78.7,74.5,29.81,NE,49,0.0,1.0,87,0.00,,,0.01,Wunderground v.1.15,2013-09-25 17:35:00,
2013-09-25 13:40:00,78.7,74.5,29.81,NE,34,0.0,0.0,87,0.00,,,0.01,Wunderground v.1.15,2013-09-25 17:40:00,
2013-09-25 13:50:00,78.7,74.2,29.81,ENE,57,1.0,5.0,86,0.00,,,0.01,Wunderground v.1.15,2013-09-25 17:50:00,
2013-09-25 13:55:00,78.3,73.8,29.80,NE,53,3.0,5.0,86,0.00,,,0.01,Wunderground v.1.15,2013-09-25 17:55:00,
2013-09-25 14:05:00,78.5,74.3,29.80,NE,55,1.0,10.0,87,0.00,,,0.01,Wunderground v.1.15,2013-09-25 18:05:00,
2013-09-25 14:10:00,78.5,74.6,29.80,NNE,33,3.0,3.0,88,0.00,,,0.01,Wunderground v.1.15,2013-09-25 18:10:00,
2013-09-25 14:15:00,78.5,74.3,29.80,NE,52,2.0,3.0,87,0.00,,,0.01,Wunderground v.1.15,2013-09-25 18:15:00,
2013-09-25 14:25:00,78.3,74.1,29.80,NE,53,4.0,6.0,87,0.00,,,0.01,Wunderground v.1.15,2013-09-25 18:25:00,
2013-09-25 14:30:00,78.4,74.2,29.79,NE,54,3.0,3.0,87,0.00,,,0.01,Wunderground v.1.15,2013-09-25 18:30:00,
2013-09-25 14:40:00,78.5,74.3,29.79,NE,43,1.0,7.0,87,0.00,,,0.01,Wunderground v.1.15,2013-09-25 18:40:00,
2013-09-25 14:45:00,78.6,74.4,29.79,NE,42,3.0,7.0,87,0.00,,,0.01,Wunderground v.1.15,2013-09-25 18:45:00,
2013-09-25 14:50:00,78.7,74.5,29.78,NE,45,1.0,1.0,87,0.00,,,0.01,Wunderground v.1.15,2013-09-25 18:50:00,
2013-09-25 15:00:00,78.8,74.6,29.78,NE,46,2.0,2.0,87,0.00,,,0.01,Wunderground v.1.15,2013-09-25 19:00:00,
2013-09-25 15:05:00,78.9,74.4,29.78,NE,34,0.0,2.0,86,0.00,,,0.01,Wunderground v.1.15,2013-09-25 19:05:00,
2013-09-25 15:15:00,79.2,74.6,29.77,NE,34,0.0,0.0,86,0.00,,,0.01,Wunderground v.1.15,2013-09-25 19:15:00,
2013-09-25 15:20:00,79.3,74.7,29.77,NE,34,0.0,0.0,86,0.00,,,0.01,Wunderground v.1.15,2013-09-25 19:20:00,
2013-09-25 15:25:00,79.5,74.9,29.77,NNE,33,0.0,0.0,86,0.00,,,0.01,Wunderground v.1.15,2013-09-25 19:25:00,
2013-09-25 15:35:00,80.0,75.1,29.77,NNE,33,0.0,0.0,85,0.00,,,0.01,Wunderground v.1.15,2013-09-25 19:35:00,
2013-09-25 15:40:00,80.3,75.4,29.77,NNE,33,0.0,0.0,85,0.00,,,0.01,Wunderground v.1.15,2013-09-25 19:40:00,
2013-09-25 15:50:00,80.9,75.6,29.76,NNE,33,0.0,0.0,84,0.00,,,0.01,Wunderground v.1.15,2013-09-25 19:50:00,
2013-09-25 15:55:00,81.5,76.2,29.77,NNE,32,0.0,0.0,84,0.00,,,0.01,Wunderground v.1.15,2013-09-25 19:55:00,
2013-09-25 16:05:00,81.6,75.6,29.77,NNE,31,0.0,0.0,82,0.00,,,0.01,Wunderground v.1.15,2013-09-25 20:05:00,
2013-09-25 16:10:00,81.2,75.2,29.76,NNE,31,0.0,0.0,82,0.00,,,0.01,Wunderground v.1.15,2013-09-25 20:10:00,
2013-09-25 16:20:00,81.1,75.4,29.76,NNE,18,0.0,0.0,83,0.00,,,0.01,Wunderground v.1.15,2013-09-25 20:20:00,
2013-09-25 16:25:00,80.6,75.3,29.76,NNE,18,0.0,0.0,84,0.00,,,0.01,Wunderground v.1.15,2013-09-25 20:25:00,
2013-09-25 16:35:00,80.4,75.5,29.76,NNE,20,0.0,0.0,85,0.00,,,0.01,Wunderground v.1.15,2013-09-25 20:35:00,
2013-09-25 16:40:00,80.5,75.6,29.76,NNE,20,0.0,0.0,85,0.00,,,0.01,Wunderground v.1.15,2013-09-25 20:40:00,
2013-09-25 16:45:00,80.6,75.3,29.76,NNE,20,0.0,0.0,84,0.00,,,0.01,Wunderground v.1.15,2013-09-25 20:45:00,
2013-09-25 16:55:00,80.5,75.2,29.76,NNE,20,0.0,0.0,84,0.00,,,0.01,Wunderground v.1.15,2013-09-25 20:55:00,
2013-09-25 17:00:00,80.7,75.4,29.76,NNE,20,0.0,0.0,84,0.00,,,0.01,Wunderground v.1.15,2013-09-25 21:00:00,
2013-09-25 17:10:00,80.9,75.6,29.76,NNE,17,1.0,1.0,84,0.00,,,0.01,Wunderground v.1.15,2013-09-25 21:10:00,
2013-09-25 17:15:00,81.0,75.7,29.76,NNE,17,0.0,1.0,84,0.00,,,0.01,Wunderground v.1.15,2013-09-25 21:15:00,
2013-09-25 17:20:00,81.2,75.9,29.76,NNE,15,0.0,0.0,84,0.00,,,0.01,Wunderground v.1.15,2013-09-25 21:20:00,
2013-09-25 17:30:00,80.9,75.6,29.76,North,355,0.0,0.0,84,0.00,,,0.01,Wunderground v.1.15,2013-09-25 21:30:00,
2013-09-25 17:35:00,81.2,75.9,29.76,North,355,0.0,0.0,84,0.00,,,0.01,Wunderground v.1.15,2013-09-25 21:35:00,
2013-09-25 17:45:00,81.6,76.3,29.76,North,355,0.0,0.0,84,0.00,,,0.01,Wunderground v.1.15,2013-09-25 21:45:00,
2013-09-25 17:50:00,81.8,76.1,29.76,North,355,0.0,0.0,83,0.00,,,0.01,Wunderground v.1.15,2013-09-25 21:50:00,
2013-09-25 17:55:00,81.8,76.1,29.76,North,355,0.0,0.0,83,0.00,,,0.01,Wunderground v.1.15,2013-09-25 21:55:00,
2013-09-25 18:05:00,81.7,76.0,29.76,NNW,340,0.0,0.0,83,0.00,,,0.01,Wunderground v.1.15,2013-09-25 22:05:00,
2013-09-25 18:10:00,82.1,76.4,29.76,NNW,341,0.0,0.0,83,0.00,,,0.01,Wunderground v.1.15,2013-09-25 22:10:00,
2013-09-25 18:20:00,81.8,76.1,29.76,North,355,0.0,0.0,83,0.00,,,0.01,Wunderground v.1.15,2013-09-25 22:20:00,
2013-09-25 18:25:00,81.8,76.1,29.76,North,351,0.0,0.0,83,0.00,,,0.01,Wunderground v.1.15,2013-09-25 22:25:00,
2013-09-25 18:35:00,81.6,75.9,29.77,North,355,0.0,0.0,83,0.00,,,0.01,Wunderground v.1.15,2013-09-25 22:35:00,
2013-09-25 18:40:00,81.6,76.3,29.77,North,355,0.0,0.0,84,0.00,,,0.01,Wunderground v.1.15,2013-09-25 22:40:00,
2013-09-25 18:45:00,81.4,75.7,29.77,North,355,0.0,0.0,83,0.00,,,0.01,Wunderground v.1.15,2013-09-25 22:45:00,
2013-09-25 18:55:00,81.4,76.1,29.77,South,171,1.0,5.0,84,0.00,,,0.01,Wunderground v.1.15,2013-09-25 22:55:00,
2013-09-25 19:05:00,81.3,76.4,29.77,South,174,0.0,2.0,85,0.00,,,0.01,Wunderground v.1.15,2013-09-25 23:05:00,
2013-09-25 19:10:00,81.2,76.3,29.77,South,179,0.0,0.0,85,0.00,,,0.01,Wunderground v.1.15,2013-09-25 23:10:00,
2013-09-25 19:15:00,81.1,76.2,29.77,SSW,192,0.0,0.0,85,0.00,,,0.01,Wunderground v.1.15,2013-09-25 23:15:00,
2013-09-25 19:20:00,81.0,76.4,29.77,SSW,196,0.0,0.0,86,0.00,,,0.01,Wunderground v.1.15,2013-09-25 23:20:00,
2013-09-25 19:30:00,80.9,76.3,29.78,SW,219,1.0,1.0,86,0.00,,,0.01,Wunderground v.1.15,2013-09-25 23:30:00,
2013-09-25 19:35:00,80.9,76.3,29.78,SSW,209,0.0,1.0,86,0.00,,,0.01,Wunderground v.1.15,2013-09-25 23:35:00,
2013-09-25 19:45:00,80.8,76.2,29.78,SW,223,0.0,1.0,86,0.00,,,0.01,Wunderground v.1.15,2013-09-25 23:45:00,
2013-09-25 19:50:00,80.6,76.0,29.78,SW,226,1.0,1.0,86,0.00,,,0.01,Wunderground v.1.15,2013-09-25 23:50:00,
2013-09-25 19:55:00,80.5,75.9,29.78,SW,226,1.0,1.0,86,0.00,,,0.01,Wunderground v.1.15,2013-09-25 23:55:00,
2013-09-25 20:05:00,80.3,75.7,29.78,SW,223,0.0,0.0,86,0.00,,,0.01,Wunderground v.1.15,2013-09-26 00:05:00,
2013-09-25 20:10:00,80.3,75.7,29.78,SW,223,0.0,0.0,86,0.00,,,0.01,Wunderground v.1.15,2013-09-26 00:10:00,
2013-09-25 20:20:00,80.2,76.0,29.78,SW,225,0.0,0.0,87,0.00,,,0.01,Wunderground v.1.15,2013-09-26 00:20:00,
2013-09-25 20:25:00,80.1,75.9,29.79,SW,224,0.0,0.0,87,0.00,,,0.01,Wunderground v.1.15,2013-09-26 00:25:00,
2013-09-25 20:35:00,80.2,76.0,29.79,SW,224,0.0,0.0,87,0.00,,,0.01,Wunderground v.1.15,2013-09-26 00:35:00,
2013-09-25 20:40:00,80.2,76.0,29.79,SW,224,0.0,0.0,87,0.00,,,0.01,Wunderground v.1.15,2013-09-26 00:40:00,
2013-09-25 20:50:00,80.0,75.8,29.79,SW,224,0.0,0.0,87,0.00,,,0.01,Wunderground v.1.15,2013-09-26 00:50:00,
2013-09-25 20:55:00,79.9,75.7,29.79,SW,224,0.0,0.0,87,0.00,,,0.01,Wunderground v.1.15,2013-09-26 00:55:00,
2013-09-25 21:05:00,79.8,75.9,29.79,SW,224,0.0,0.0,88,0.00,,,0.01,Wunderground v.1.15,2013-09-26 01:05:00,
2013-09-25 21:10:00,79.8,75.9,29.79,SW,224,0.0,0.0,88,0.00,,,0.01,Wunderground v.1.15,2013-09-26 01:10:00,
2013-09-25 21:15:00,79.8,75.9,29.80,SW,224,0.0,0.0,88,0.00,,,0.01,Wunderground v.1.15,2013-09-26 01:15:00,
2013-09-25 21:25:00,79.9,76.0,29.80,SW,224,0.0,0.0,88,0.00,,,0.01,Wunderground v.1.15,2013-09-26 01:25:00,
2013-09-25 21:35:00,79.8,75.9,29.80,SW,224,0.0,0.0,88,0.00,,,0.01,Wunderground v.1.15,2013-09-26 01:35:00,
2013-09-25 21:40:00,79.8,75.9,29.80,SW,224,0.0,0.0,88,0.00,,,0.01,Wunderground v.1.15,2013-09-26 01:40:00,
2013-09-25 21:50:00,79.7,75.8,29.81,SW,224,0.0,0.0,88,0.00,,,0.01,Wunderground v.1.15,2013-09-26 01:50:00,
2013-09-25 21:55:00,79.7,75.5,29.81,SW,224,0.0,0.0,87,0.00,,,0.01,Wunderground v.1.15,2013-09-26 01:55:00,
2013-09-25 22:00:00,79.7,75.5,29.80,SW,224,0.0,0.0,87,0.00,,,0.01,Wunderground v.1.15,2013-09-26 02:00:00,
2013-09-25 22:10:00,79.8,75.6,29.81,SW,224,0.0,0.0,87,0.00,,,0.01,Wunderground v.1.15,2013-09-26 02:10:00,
2013-09-25 22:20:00,79.8,75.6,29.81,SW,224,0.0,0.0,87,0.00,,,0.01,Wunderground v.1.15,2013-09-26 02:20:00,
2013-09-25 22:25:00,79.8,75.6,29.81,SW,224,0.0,0.0,87,0.00,,,0.01,Wunderground v.1.15,2013-09-26 02:25:00,
2013-09-25 22:30:00,79.7,75.5,29.81,SW,224,0.0,0.0,87,0.00,,,0.01,Wunderground v.1.15,2013-09-26 02:30:00,
2013-09-25 22:40:00,79.7,75.5,29.81,SW,224,0.0,0.0,87,0.00,,,0.01,Wunderground v.1.15,2013-09-26 02:40:00,
2013-09-25 22:45:00,79.7,75.5,29.81,SW,224,0.0,0.0,87,0.00,,,0.01,Wunderground v.1.15,2013-09-26 02:45:00,
2013-09-25 22:55:00,79.7,75.5,29.81,SW,224,0.0,0.0,87,0.00,,,0.01,Wunderground v.1.15,2013-09-26 02:55:00,
2013-09-25 23:05:00,79.6,75.4,29.81,SW,224,0.0,0.0,87,0.00,,,0.01,Wunderground v.1.15,2013-09-26 03:05:00,
2013-09-25 23:10:00,79.7,75.5,29.81,SW,224,0.0,0.0,87,0.00,,,0.01,Wunderground v.1.15,2013-09-26 03:10:00,
2013-09-25 23:15:00,79.8,75.6,29.81,SW,224,0.0,0.0,87,0.00,,,0.01,Wunderground v.1.15,2013-09-26 03:15:00,
2013-09-25 23:20:00,79.9,75.7,29.81,SW,224,0.0,0.0,87,0.00,,,0.01,Wunderground v.1.15,2013-09-26 03:20:00,
2013-09-25 23:30:00,79.8,75.2,29.82,SW,224,0.0,0.0,86,0.00,,,0.01,Wunderground v.1.15,2013-09-26 03:30:00,
2013-09-25 23:35:00,79.8,75.2,29.82,SW,224,0.0,0.0,86,0.00,,,0.01,Wunderground v.1.15,2013-09-26 03:35:00,
2013-09-25 23:45:00,79.7,75.1,29.82,SW,224,0.0,0.0,86,0.00,,,0.01,Wunderground v.1.15,2013-09-26 03:45:00,
2013-09-25 23:50:00,79.6,75.0,29.82,SW,224,0.0,0.0,86,0.00,,,0.01,Wunderground v.1.15,2013-09-26 03:50:00,